Regional Weather Roundup
Issued by NWS Pendleton, OR

Home | Current Version | Previous Version | Text Only | Print | Product List | Glossary On
Versions: 1 2 3 4 5 6 7 8 9 10 11 12 13 14 15 16 17 18 19 20 21 22 23 24 25 26 27 28 29 30 31 32 33 34 35 36 37 38 39 40 41 42 43 44 45 46 47 48 49 50
097
ASUS46 KPDT 240825
RWRPDT
PENDLETON REGIONAL WEATHER ROUNDUP
NATIONAL WEATHER SERVICE PENDLETON OREGON
100 AM PDT FRI MAR 24 2017

NOTE: FAIR INDICATES FEW OR NO CLOUDS BELOW 12,000 FEET WITH NO
SIGNIFICANT WEATHER AND/OR OBSTRUCTIONS TO VISIBILITY.

# INDICATES UNOFFICIAL STATION AND DATA

WAZ520-240910-
EAST SLOPES OF WASHINGTON CASCADES

CITY            SKY/WX      TMP DP  RH  WIND    PRES   REMARKS
#CLE ELUM HS    N/A         38  35  89  CALM    29.89S
#CLE ELUM LAKE  N/A         33  32  96  CALM    29.93R
#GLENWOOD       N/A         39  37  92  CALM    29.94F
#NELSON 3SW     N/A         32  31  96  CALM    30.17S
#NILE           N/A         37  36  96  CALM    29.23S
#TEANAWAY 4NE   N/A         38  37  96  CALM    N/A
#TROUT LAKE 1NE N/A         36  35  96  CALM    29.96F
#TROUT LAKE 1E  N/A         35  34  96  CALM    29.95F
$$

WAZ521-240910-
SIMCOE HIGHLANDS

CITY            SKY/WX      TMP DP  RH  WIND    PRES   REMARKS
#BICKLETON HS   N/A         42  37  82  S6      29.94F
#CENTERVILLE 1SWN/A         42  37  82  CALM    29.90R
#GOLDENDALE 1NE N/A         43  35  73  SW2     N/A
#GOLDENDALE 4W  N/A         42  32  67  CALM    29.94S
#GOODNOE HILLS  N/A         47  37  68  W3      29.83S
#LYLE 6NE       N/A         42  40  93  N1      29.90F
#PITT 4SE       N/A         39  37  92  N2      29.96F
$$

WAZ026-240910-
KITTITAS VALLEY

CITY            SKY/WX      TMP DP  RH  WIND    PRES   REMARKS
ELLENSBURG AP   LGT RAIN    44  35  70  NW5     29.93S
#ELLENSBURG CWU N/A         44  34  68  CALM    29.89S
#ELLENSBURG 3NE N/A         42  36  79  CALM    28.01S
#ELLENSBURG 1E  N/A         42  N/A N/A CALM    N/A
#ELLENSBURG 13S N/A         45  34  65  CALM    N/A
#KITTITAS 4N    N/A         42  33  70  E2      29.94S
#KITTITAS 3S    N/A         42  36  79  CALM    29.93F
#THORP 6N       N/A         38  35  89  E5      29.98S
$$

WAZ027-240910-
YAKIMA VALLEY

CITY            SKY/WX      TMP DP  RH  WIND    PRES   REMARKS
SUNNYSIDE AP    CLOUDY      46  36  68  W6      29.92S
YAKIMA AIRPORT  LGT RAIN    47  40  76  SW7     29.93S
YAKIMA-VAGABOND LGT RAIN SH 44  34  68  CALM    29.91S
#DONALD 2NE     N/A         48  19  31  NW2     28.77F
#GRANDVIEW      N/A         47  35  63  SW2     29.95S
#MABTON         N/A         47  39  74  NW2     29.92S
#MOXEE 2E       N/A         46   0  14  N2      29.90S
#NACHES 2SW     N/A         43  38  82  CALM    29.93F
#TERRACE HTS    N/A         45  37  73  CALM    29.91F
#TOPPENISH      N/A         47  38  71  CALM    29.86S
#WEST VALLEY    N/A         46  38  73  CALM    29.93S
#W YAKIMA       N/A         46  37  71  CALM    29.95S
#WHITE SWAN 5E  N/A         46  41  83  CALM    29.95S
#WILEY CITY 3W  N/A         42  36  79  CALM    29.90S
$$

WAZ028-240910-
LOWER COLUMBIA BASIN...WASHINGTON

CITY            SKY/WX      TMP DP  RH  WIND    PRES   REMARKS
PASCO           CLOUDY      45  36  70  N7      29.91F
PROSSER AWOS    N/A         46  39  76  CALM    29.96S
RICHLAND AWOS   CLOUDY      49  36  61  CALM    29.94R
#BENTON CITY    N/A         47  35  63  CALM    29.84F
#CONNELL 5N     N/A         43  35  73  NE6     29.92F
#CONNELL 5NW    N/A         43  37  79  NE3     29.87F
#ELTOPIA 6NW    N/A         43  37  79  CALM    28.88F
#KAHLOTUS       N/A         41  34  76  CALM    29.91F
#KENNEWICK 3S   N/A         45  36  70  CALM    29.93S
#PATERSON       N/A         49  37  63  E7      29.90R
#SAGEMOOR 2W    N/A         44  36  73  NW5     29.78F
#TOUCHET 2S     N/A         44  39  82  NW7     29.89R
#WEST PASCO     N/A         47  36  65  W2      29.89F
$$

WAZ029-240910-
FOOTHILLS OF THE BLUES...WASHINGTON

CITY            SKY/WX      TMP DP  RH  WIND    PRES   REMARKS
WALLA WALLA AP  CLOUDY      59  29  32  S20     29.86F
#CLYDE 6NW      N/A         44  34  68  E2      29.90F
#DAYTON SCHOOL  N/A         49  26  40  N2      29.91F
#LOWDEN 2SE     N/A         42  39  89  NW3     29.85S
#PLEASANT VIEW 1N/A         41  34  76  N1      29.95F
#PRESCOTT       N/A         45  37  73  CALM    29.87F
#WHITMAN COLLEGEN/A         56  34  43  SW3     29.92F
#WAITSBURG 5S   N/A         53  33  46  SE12    29.98F
#WAITSBURG 8N   N/A         45  N/A N/A E3      29.82F
#WALLA WALLA 5E N/A         59  30  33  SE22G29 N/A
#WHITMAN MISSIONN/A         43  39  86  CALM    29.91R
$$

WAZ030-240910-
BLUE MOUNTAINS...WASHINGTON

CITY            SKY/WX      TMP DP  RH  WIND    PRES   REMARKS
#DIXIE 5SE      N/A         38  28  67  S12     29.81S WCI 30
$$

ORZ009-041-WAZ024-240910-
COLUMBIA RIVER GORGE

CITY            SKY/WX      TMP DP  RH  WIND    PRES   REMARKS
HOOD RIVER AP   LGT RAIN    45  43  93  CALM    29.94S
THE DALLES AP   LGT RAIN    47  47  100 NW8     29.93S
#ARLINGTON AIRPON/A         48  39  71  CALM    29.94F
#ARLINGTON HS   N/A         49  38  66  CALM    29.83F
#CELILO DOT     N/A         47  41  79  S2      N/A
#LYLE           N/A         46  44  93  NW1     29.96S
#MOSIER 1S      N/A         44  36  73  CALM    29.91S
#MURDOCK        N/A         46  44  93  N6      29.89F
#RUFUS DOT      N/A         49  42  77  W8      N/A
#SMITHVILLE     N/A         47  44  89  N7      29.88F

$$

ORZ510-240910-
NORTH CENTRAL OREGON

CITY            SKY/WX      TMP DP  RH  WIND    PRES   REMARKS
#ANTELOPE       N/A         42  39  89  CALM    29.82F
#CHENOWITH 1W   N/A         42  40  93  N6      N/A
#COW CYN RST AREN/A         42  42  100 SE3     N/A
#DUFUR          N/A         43  41  93  CALM    29.90F
#DUFUR 9E       N/A         42  37  82  E2      29.98S
#GRASS VALLEY 1SN/A         43  40  89  S2      30.04F
#KENT DOT       N/A         43  36  76  N8      N/A
#MAUPIN SCHOOL  N/A         46  40  79  CALM    29.96S
#MORO SCHOOL    N/A         43  41  93  CALM    29.98F
#SHANIKO 4NW    N/A         40  37  89  S20     29.87F WCI 30
#TYGH VALLEY 2NEN/A         45  42  89  CALM    29.91F
#WAPANITIA AIRPON/A         43  41  93  CALM    29.95S
#WASCO 5NE      N/A         44  39  82  CALM    29.93S
$$

ORZ511-240910-
CENTRAL OREGON

CITY            SKY/WX      TMP DP  RH  WIND    PRES   REMARKS
BEND AIRPORT    CLOUDY      45  34  65  S17     29.90F WCI 38
MADRAS AIRPORT  LGT DRIZZLE 45  39  79  S12     29.91F WCI 39
PRINEVILLE AP   LGT MXD PCP 45  37  73  SE8     29.91F
REDMOND AIRPORT CLOUDY      46  32  58  SE8     29.90F
#ASHWOOD SCHOOL N/A         46  39  76  SE7     29.87F
#BEND 1SW       N/A         39  37  92  W3      N/A
#BEND-AWBREY    N/A         40  37  89  SW7     29.91F
#BEND-KIM LN    N/A         44  36  73  SE7     29.85F
#CULVER         N/A         45  37  73  SE9     29.83F
#CULVER 8W      N/A         43  40  89  CALM    29.91S
#LAKE BILLY CHINN/A         42  N/A N/A CALM    30.00S
#POWELL BUTTE   N/A         44  34  68  S12     29.87F WCI 38
#PRINEVILLE     N/A         44  36  73  S6      30.02F
#PRINEVILLE 3N  N/A         44  38  79  E12     29.93S WCI 38
#WARM SPRINGS   N/A         47  43  86  CALM    29.86F

$$


ORZ509-240910-
EAST SLOPES OF OREGON CASCADES

CITY            SKY/WX      TMP DP  RH  WIND    PRES   REMARKS
SISTERS AWOS    N/A         39  37  92  CALM    29.86F
#BLUE BOX PASS  N/A         32  N/A N/A SE3     N/A
#CAMP SHERMAN   N/A         39  37  92  CALM    29.94F
#LA PINE 4SW    N/A         38  33  82  S6      29.94S
#LA PINE 4NW    N/A         38  33  82  CALM    30.00F
#LAVA BUTTE DOT N/A         36  34  92  SE5     N/A
#SISTERS 3N     N/A         40  35  82  CALM    29.91S
#SUNRIVER       N/A         38  36  92  SW2     29.96F
#TUMALO 3W      N/A         41  36  82  S10     29.78F
#WANOGA BUTTE D N/A         31  31  100 W15     N/A    WCI 20

$$

ORZ044-240910-
LOWER COLUMBIA BASIN...OREGON

CITY            SKY/WX      TMP DP  RH  WIND    PRES   REMARKS
HERMISTON       CLOUDY      47  39  74  CALM    29.90R
#BOARDMAN SCHOOLN/A         50  39  66  CALM    29.91S
#BOARDMAN 8SW   N/A         50  38  63  W5      29.91S
#ECHO 8SW       N/A         47  39  74  SW3     29.92R
#I-84 EX 198 DOTN/A         47  35  63  N13     N/A    WCI 41
#IONE SCHOOL    N/A         47  29  49  CALM    29.94F
#UMATILLA       N/A         48  37  65  CALM    29.85R
$$

ORZ507-240910-
NORTHERN FOOTHILLS OF THE BLUES

CITY            SKY/WX      TMP DP  RH  WIND    PRES   REMARKS
PENDLETON AIRPT CLOUDY      51  32  48  W16     29.90R
#ADAMS 3WNW     N/A         52  33  48  S6      29.90S
#ATHENA         N/A         53  33  46  SE5     29.93R
#CAYUSE         N/A         54  33  45  SE26G35 29.88S
#HELIX SCHOOL   N/A         50  35  56  N10     29.91R
#HELIX 3N       N/A         49  35  58  S15     29.86S WCI 43
#HOLDMAN 5SE    N/A         46  38  73  W9      29.90R
#HOLDMAN 6E     N/A         47  37  68  S12     29.73R WCI 42
#M-F FERNDALE   N/A         57  31  37  S3      29.84F
#M-F GROVE ELEM N/A         57  27  31  SE6     29.85S
#M-FREEWATER 5SEN/A         56  33  42  E15     29.88F
#PENDLETON DNTN N/A         48  35  60  S1      29.89R
#PDT AQUATIC CTRN/A         52  34  50  W7      29.78S
#PDT SUNRIDGE   N/A         52  34  50  SE6     29.90R
#PILOT ROCK 1S  N/A         51  28  41  S6      29.90R
#PILOT ROCK     N/A         46  36  68  SW2     29.92R
#TUTUILLA       N/A         54  34  47  S5      29.91R
#UMAPINE 2E     N/A         49  39  68  N1      29.85S
#WESTON SCHOOL  N/A         54  26  34  S13     29.89S

$$

ORZ508-240910-
SOUTHERN FOOTHILLS OF THE BLUES

CITY            SKY/WX      TMP DP  RH  WIND    PRES   REMARKS
LEXINGTON       CLOUDY      46  37  71  E5      29.94F
#AJAX           N/A         43  31  62  CALM    30.06S
#CONDON SCHOOL  N/A         42  38  86  S1      29.86F
#CONDON 5W      N/A         40  34  79  W5      29.87F
#FOSSIL SCHOOL  N/A         45  40  82  E1      29.86S
#HEPPNER EOC    N/A         44  36  73  NE3     29.87R
#HEPPNER 4NE    N/A         41  35  79  W2      29.93S
#LEXINGTON 2SE  N/A         47  38  71  CALM    29.89R
#OLEX 4N        N/A         46  40  79  SW2     29.90S
#RUGGS 5NE      N/A         42  35  76  W1      30.04S
#RUGGS 2SW      N/A         46  36  68  W6      29.96S

$$

ORZ502-503-240910-
BLUE MOUNTAINS

CITY            SKY/WX      TMP DP  RH  WIND    PRES   REMARKS
MEACHAM         CLOUDY      41  25  53  CALM    29.93S
#BATTLE MTN DOT N/A         39  23  52  S3      N/A
#GREENHORN 9SW  N/A         50  N/A N/A CALM    26.16
#HARDMAN 10S    N/A         39  34  82  S8      30.09S
#HEPPNER 15SE   N/A         44  29  55  SE2     29.93R
#LADD CYN SMT   N/A         40  28  62  S2      N/A
#LADD CREEK ODOTN/A         37  20  50  SW8     N/A
#LONG CREEK HS  N/A         47  31  53  CALM    N/A
#N POWDER DOT   N/A         43  29  57  S10     N/A
#PIKES PEAK     N/A         50  24  36  W28G37  27.99S
#TOLLGATE       N/A         37  26  64  SW5     29.81S
#TROY SCHOOL    N/A         36  32  85  CALM    29.88S
#UKIAH          N/A         40  34  79  CALM    29.87S
#WESTON 4E      N/A         46  30  53  E13     29.92S WCI 40
$$

ORZ505-240910-
JOHN DAY BASIN

CITY            SKY/WX      TMP DP  RH  WIND    PRES   REMARKS
JOHN DAY        MOCLDY      48  26  42  S16G24  29.95S WCI 42
#JOHN DAY KJDY  N/A         45  N/A N/A E3      29.29F
#ANTELOPE 9ESE  N/A         46  41  83  E2      N/A
#DAYVILLE SCHOOLN/A         47  35  63  SE8     29.93R
#MITCHELL       N/A         45  39  79  CALM    30.08S
#MITCHELL 8NW   N/A         42  35  76  SW2     29.75S
#MONUMENT HS    N/A         44  34  68  N3      29.89R
#MT. VERNON 5SE N/A         44  28  53  SE2     29.91R
#SPRAY SCHOOL   N/A         53  N/A N/A CALM    N/A
#WINLOCK        N/A         43  39  86  CALM    29.90R
$$

ORZ506-240910-
OCHOCO AND JOHN DAY HIGHLANDS

CITY            SKY/WX      TMP DP  RH  WIND    PRES   REMARKS
#HORSE RIDGE DO N/A         39  32  76  S16     N/A    WCI 30
#PAULINA SCHOOL N/A         43  33  67  SW2     N/A
#PINE MTN OBS   N/A         30  29  96  S18G31  N/A    WCI 18
#PRAIRIE CITY   N/A         41  32  70  CALM    30.11S
#SENECA         N/A         41  N/A N/A N6      N/A
#SENECA 9NW     N/A         38  29  70  CALM    30.01S
$$

ORZ049-240910-
GRANDE RONDE VALLEY

CITY            SKY/WX      TMP DP  RH  WIND    PRES   REMARKS
LA GRANDE       CLOUDY      46  28  49  S12     29.96S WCI 40
#COVE           N/A         36  33  89  CALM    29.99F
#COVE SCHOOL    N/A         38  32  79  CALM    29.98S
#COVE 6NW       N/A         35  31  85  CALM    30.01S
#ELGIN 3N       N/A         34  27  75  CALM    29.96S
#ELGIN 1E       N/A         36  31  82  CALM    N/A
#IMBLER SCHOOL  N/A         37  32  82  N1      29.94S
#ISLAND CITY 4N N/A         47  46  96  CALM    29.87F
#UNION 1S       N/A         46  30  53  S3      30.00F
$$

ORZ050-240910-
WALLOWA COUNTY

CITY            SKY/WX      TMP DP  RH  WIND    PRES   REMARKS
JOSEPH AIRPORT  PTCLDY      32  27  82  E3      29.96F
#IMNAHA SCHOOL  N/A         38  34  85  N1      29.99F
#IMNAHA 10S     N/A         38  30  73  CALM    29.97S
#JOSEPH 3N      N/A         30  23  75  CALM    29.98F
#JOSEPH 3W      N/A         33  26  75  SW2     29.80F
#LOSTINE        N/A         32  29  89  E2      29.83S
#LOSTINE 3SE    N/A         31  28  88  CALM    30.00F
#MT HOWARD 8000 N/A         29  19  66  S20G37  29.89F WCI 16
#PROMISE 1S     N/A         31  26  81  CALM    30.12F
#WALLOWA SCHOOL N/A         31  29  92  CALM    29.96S



$$



USA.gov is the U.S. government's official web portal to all federal, state and local government web resources and services.